Location: Jackson
(42.2460°N, 84.4010°W)
Time: 11:20:38
(UTC-04:00)

Injun/Solrad 3 - Pass Details

Date: 11 February 2026
Orbit: 871 x 985 km, 66.8° (Epoch: 16 March)

Event Time Altitude Azimuth Distance (km) Brightness Sun altitude
Rises 22:27:49 0° 327° (NNW) 3,572 11.5 -47.8°
Reaches altitude 10° 22:30:19 10° 325° (NW) 2,643 10.7 -48.2°
Enters shadow 22:30:29 11° 325° (NW) 2,582 10.7 -48.2°
